251  
ASUS42 KCAE 201810  
RWRCAE  
REGIONAL WEATHER ROUNDUP  
NATIONAL WEATHER SERVICE COLUMBIA SC  
200 PM EDT SAT APR 20 2019  
 
NOTE: "FAIR" INDICATES FEW OR NO CLOUDS BELOW 12,000 FEET WITH NO  
SIGNIFICANT WEATHER AND/OR S TO VISIBILITY
.  
 
NOT ALL STATIONS ARE QUALITY CONTROLLED BY THE NATIONAL  
WEATHER SERVICE. USE DATA WITH CAUTION...ESPECIALLY  
DEWPOINT OBSERVATIONS.  
 
SCZ001>056-GAZ040-063>065-077-201900-   
..UPSTATE SOUTH CAROLINA
 
 
 
CITY SKY/WX TMP DP RH WIND PRES REMARKS
 
ANDERSON CLOUDY 54 42 64 SW17G26 29.73S  
6HR MIN TEMP: 47; 6HR MAX TEMP: 55; 6HR PCP: 0.02;  
 
LIBERTY CLOUDY 51 44 76 SW9 29.71S  
6HR MIN TEMP: 44; 6HR MAX TEMP: 52;  
 
SPARTANBURG PTSUNNY 50 43 76 S5 29.72F  
CLEMSON PTSUNNY 51 42 71 MISG 29.73S  
6HR MIN TEMP: 44; 6HR MAX TEMP: 52; 6HR PCP: 0.03;  
 
GREENVILLE LGT RAIN 50 45 83 W15G22 29.73R  
6HR MIN TEMP: 46; 6HR MAX TEMP: 51; 6HR PCP: 0.06;  
 
GREENWOOD LGT RAIN 53 43 68 SW16G24 29.77S  
6HR MIN TEMP: 46; 6HR MAX TEMP: 54; 6HR PCP: 0.02;  
 
GREER LGT RAIN 50 42 74 W10 29.73R  
6HR MIN TEMP: 46; 6HR MAX TEMP: 53; 6HR PCP: 0.03;  
 
ROCK HILL CLOUDY 53 43 68 S13G26 29.75S  
6HR MIN TEMP: 48; 6HR MAX TEMP: 54; 6HR PCP: TRACE;  
 
CHESTER CLOUDY 54 37 54 S8G18 29.76S  
LAURENS LGT RAIN 48 45 87 SW9G28 29.75R  
 
   
..CENTRAL SOUTH CAROLINA
 
 
 
CITY SKY/WX TMP DP RH WIND PRES REMARKS
 
COLUMBIA APT LGT RAIN 53 45 74 SW12 29.79R  
6HR MIN TEMP: 50; 6HR MAX TEMP: 59; 6HR PCP: 0.01;  
 
COLUMBIA OWENS CLOUDY 56 43 61 SW15G23 29.81R  
6HR MIN TEMP: 51; 6HR MAX TEMP: 60; 6HR PCP: TRACE;  
 
ORANGEBURG LGT RAIN 55 41 59 SW23G35 29.82R  
6HR MIN TEMP: 50; 6HR MAX TEMP: 60; 6HR PCP: TRACE;  
 
SUMTER SHAW CLOUDY 58 42 54 S20G26 29.78S  
6HR MIN TEMP: 52; 6HR MAX TEMP: 59; 6HR PCP: TRACE;  
 
NEWBERRY CLOUDY 52 46 82 SW13G22 29.79S  
AIKEN CLOUDY 52 43 71 SW13G18 29.83S  
BARNWELL MOCLDY 55 46 71 S18 29.84S  
MANNING MOCLDY 59 41 51 W14G22 29.80S  
CAMDEN MOCLDY 55 43 62 S12G18 29.78F  
LANCASTER CLOUDY 54 46 76 SW6 29.76F  
WINNSBORO MOCLDY 55 43 62 SW16G24 29.77S  
 
   
..EASTERN AND COASTAL SOUTH CAROLINA
 
 
 
CITY SKY/WX TMP DP RH WIND PRES REMARKS
 
MYRTLE BEACH FAIR 64 50 60 S23G29 29.81F  
6HR MIN TEMP: 56; 6HR MAX TEMP: 65;  
 
N MYRTLE BCH FAIR 65 49 56 S24G35 29.81F  
6HR MIN TEMP: 56; 6HR MAX TEMP: 65; 6HR PCP: TRACE;  
 
CONWAY CLOUDY 63 45 51 S13 29.80F HAZE  
MARION CLOUDY 63 45 51 SW9 29.79F  
HARTSVILLE CLOUDY 57 41 54 S14G21 29.77F  
FLORENCE PTSUNNY 61 42 49 SW14G25 29.78F  
6HR MIN TEMP: 54; 6HR MAX TEMP: 63;  
 
DARLINGTON CLOUDY 59 43 55 SW17G28 29.78F  
6HR MIN TEMP: 52; 6HR MAX TEMP: 59;  
 
CHARLESTON APT PTSUNNY 64 41 42 SW15G29 29.82S  
6HR MIN TEMP: 54; 6HR MAX TEMP: 66;  
 
MOUNT PLEASANT FAIR 64 45 48 SW16G28 29.82S  
WALTERBORO CLOUDY 59 41 51 SW18G28 29.83F  
BEAUFORT FAIR 66 43 43 W21G29 29.84S  
6HR MIN TEMP: 55; 6HR MAX TEMP: 66;  
 
HILTON HEAD MOSUNNY 63 39 42 W21G28 29.86S  
 
   
..EASTERN GEORGIA
 
 
 
CITY SKY/WX TMP DP RH WIND PRES REMARKS
 
AUGUSTA BUSH F CLOUDY 56 45 66 SW17G25 29.82S  
6HR MIN TEMP: 50; 6HR MAX TEMP: 58; 6HR PCP: TRACE;  
 
AUGUSTA DANIEL CLOUDY 54 42 64 SW14G24 29.81S  
6HR MIN TEMP: 50; 6HR MAX TEMP: 56; 6HR PCP: TRACE;  
 
THOMSON CLOUDY 53 47 82 NW7 29.85F  
6HR MIN TEMP: 47; 6HR MAX TEMP: 53; 6HR PCP: 0.01;  
 
WASHINGTON LGT RAIN 50 45 81 SW14 29.79R  
CLAXTON MOCLDY 64 40 41 SW9G25 29.86S  
6HR MIN TEMP: 51; 6HR MAX TEMP: 64;  
 
SYLVANIA MOCLDY 59 42 53 W14 29.85F  
6HR MIN TEMP: 51; 6HR MAX TEMP: 61;  
 
STATESBORO CLOUDY 60 40 48 W10G20 29.85F  
6HR MIN TEMP: 50; 6HR MAX TEMP: 60;  
 
SAVANNAH PTSUNNY 65 41 41 W18G26 29.86S  
6HR MIN TEMP: 52; 6HR MAX TEMP: 66;  
 
   
..SOUTHERN NORTH CAROLINA
 
 
 
CITY SKY/WX TMP DP RH WIND PRES REMARKS
 
CHARLOTTE CLOUDY 55 41 59 SW14G26 29.74S  
6HR MIN TEMP: 49; 6HR MAX TEMP: 56; 6HR PCP: TRACE;  
 
MONROE LGT RAIN 51 45 79 SW7 29.75S  
6HR MIN TEMP: 50; 6HR MAX TEMP: 55; 6HR PCP: 0.01;  
 
WADESBORO MOCLDY 57 40 52 S8G21 29.76F  
ROCKINGHAM FAIR 58 40 51 S13G24 29.77F  
RUTHERFORDTON CLOUDY 48 43 81 SW7 29.73S  
ASHEVILLE CLOUDY 49 36 61 S15 29.67S  
6HR MIN TEMP: 41; 6HR MAX TEMP: 50; 6HR PCP: TRACE;  
 

 
 
 
CLICK HERE TO GO TO PREVIOUS BULLETINS.

The Nexlab SC Page
The Nexlab GA Page Main Text Page